TimeMST,TemperatureF,Dew PointF,Humidity,Sea Level PressureIn,VisibilityMPH,Wind Direction,Wind SpeedMPH,Gust SpeedMPH,PrecipitationIn,Events,Conditions,WindDirDegrees,DateUTC
12:53 AM,10.9,8.1,88,30.06,10.0,West,4.6,-,N/A,,Clear,270,2011-11-20 07:53:00
1:53 AM,9.0,6.1,88,30.05,9.0,Calm,Calm,-,N/A,,Clear,0,2011-11-20 08:53:00
2:53 AM,7.0,3.9,87,30.06,10.0,SE,3.5,-,N/A,,Clear,130,2011-11-20 09:53:00
3:53 AM,8.1,5.0,87,30.09,10.0,Calm,Calm,-,N/A,,Clear,0,2011-11-20 10:53:00
4:53 AM,8.1,3.9,83,30.10,9.0,Calm,Calm,-,N/A,,Clear,0,2011-11-20 11:53:00
5:53 AM,6.1,3.0,87,30.14,8.0,WNW,3.5,-,N/A,,Clear,300,2011-11-20 12:53:00
6:53 AM,8.1,3.0,80,30.16,10.0,Calm,Calm,-,N/A,,Clear,0,2011-11-20 13:53:00
7:53 AM,8.1,3.9,83,30.17,10.0,Calm,Calm,-,N/A,,Clear,0,2011-11-20 14:53:00
8:53 AM,12.9,8.1,81,30.15,10.0,Calm,Calm,-,N/A,,Clear,0,2011-11-20 15:53:00
9:53 AM,12.9,9.0,84,30.17,10.0,North,5.8,-,N/A,,Clear,10,2011-11-20 16:53:00
10:53 AM,17.1,12.0,81,30.14,10.0,NNE,4.6,-,N/A,,Clear,20,2011-11-20 17:53:00
11:53 AM,21.0,14.0,74,30.09,10.0,Variable,3.5,-,N/A,,Clear,0,2011-11-20 18:53:00
12:53 PM,24.1,15.1,69,30.05,10.0,Calm,Calm,-,N/A,,Clear,0,2011-11-20 19:53:00
1:53 PM,25.0,15.1,66,30.05,10.0,NNE,4.6,-,N/A,,Partly Cloudy,20,2011-11-20 20:53:00
2:53 PM,24.1,15.1,69,30.07,10.0,NNE,4.6,-,N/A,,Mostly Cloudy,30,2011-11-20 21:53:00
3:53 PM,21.0,14.0,74,30.09,10.0,Calm,Calm,-,N/A,,Mostly Cloudy,0,2011-11-20 22:53:00
4:53 PM,19.0,12.9,77,30.11,10.0,North,3.5,-,N/A,,Mostly Cloudy,10,2011-11-20 23:53:00
5:53 PM,18.0,12.9,81,30.14,10.0,Calm,Calm,-,N/A,,Scattered Clouds,0,2011-11-21 00:53:00
6:53 PM,18.0,12.9,81,30.14,10.0,Calm,Calm,-,N/A,,Clear,0,2011-11-21 01:53:00
7:53 PM,15.1,12.0,88,30.15,9.0,Calm,Calm,-,N/A,,Clear,0,2011-11-21 02:53:00
8:53 PM,16.0,12.0,84,30.13,10.0,East,4.6,-,N/A,,Mostly Cloudy,90,2011-11-21 03:53:00
9:53 PM,15.1,12.0,88,30.14,8.0,West,3.5,-,N/A,,Mostly Cloudy,280,2011-11-21 04:53:00
10:53 PM,18.0,12.0,78,30.11,10.0,WNW,6.9,-,N/A,,Mostly Cloudy,300,2011-11-21 05:53:00
11:53 PM,15.1,12.0,88,30.12,8.0,North,5.8,-,N/A,,Mostly Cloudy,350,2011-11-21 06:53:00